Location: Newark
(46.7000°N, 60.6000°W)
Time: 05:27:29
(UTC+00:00)

Transit 2A Rocket - Pass Details

Date: 28 October 2020
Orbit: 588 x 914 km, 66.7° (Epoch: 29 November)

Event Time Altitude Azimuth Distance (km) Brightness Sun altitude
Rises 14:04:02 0° 218° (SW) 3,536 8.7 25.7°
Reaches altitude 10° 14:06:35 10° 220° (SW) 2,597 8.1 25.9°
Maximum altitude 14:12:40 73° 305° (NW) 940 5.7 26.3°
Drops below altitude 10° 14:18:33 10° 31° (NNE) 2,509 7.4 26.8°
Sets 14:20:59 0° 33° (NNE) 3,408 8.1 26.9°
